| time (UTC) | temp F | wind direction | speed MPH | gust MPH | rain 1hr in | rain 24hr in | rain mn in | humidity % | barometer mb |
| 20260503220856 | 81 | 80 | 2.0 | 5.0 | 0.00 | 0.00 | 0.00 | 37 | 1016.4 |
| 20260503220438 | 81 | 80 | 2.0 | 5.0 | 0.00 | 0.00 | 0.00 | 36 | 1016.5 |
| 20260503215353 | 81 | 88 | 1.0 | 5.0 | 0.00 | 0.00 | 0.00 | 35 | 1016.5 |
| 20260503214357 | 81 | 99 | 2.0 | 8.0 | 0.00 | 0.00 | 0.00 | 36 | 1016.8 |
| 20260503213922 | 82 | 61 | 1.0 | 8.0 | 0.00 | 0.00 | 0.00 | 36 | 1016.9 |
| 20260503213357 | 82 | 88 | 2.0 | 4.0 | 0.00 | 0.00 | 0.00 | 36 | 1016.9 |
| 20260503212901 | 82 | 122 | 2.0 | 4.0 | 0.00 | 0.00 | 0.00 | 35 | 1017.0 |
| 20260503211906 | 80 | 99 | 2.0 | 10.0 | 0.00 | 0.00 | 0.00 | 39 | 1017.2 |
| 20260503210857 | 79 | 84 | 2.0 | 5.0 | 0.00 | 0.00 | 0.00 | 37 | 1017.4 |
| 20260503205913 | 81 | 111 | 1.0 | 5.0 | 0.00 | 0.00 | 0.00 | 39 | 1017.6 |
| 20260503205342 | 80 | 88 | 2.0 | 6.0 | 0.00 | 0.00 | 0.00 | 36 | 1017.7 |
| 20260503204917 | 80 | 26 | 2.0 | 7.0 | 0.00 | 0.00 | 0.00 | 39 | 1017.7 |
| 20260503204349 | 79 | 92 | 1.0 | 7.0 | 0.00 | 0.00 | 0.00 | 40 | 1017.7 |
| 20260503203921 | 80 | 67 | 2.0 | 8.0 | 0.00 | 0.00 | 0.00 | 40 | 1017.9 |
| 20260503202903 | 80 | 110 | 2.0 | 6.0 | 0.00 | 0.00 | 0.00 | 36 | 1018.2 |
| 20260503201900 | 81 | 96 | 3.0 | 7.0 | 0.00 | 0.00 | 0.00 | 36 | 1018.4 |
| 20260503200902 | 81 | 83 | 2.0 | 7.0 | 0.00 | 0.00 | 0.00 | 37 | 1018.4 |
| 20260503195900 | 81 | 87 | 1.0 | 6.0 | 0.00 | 0.00 | 0.00 | 39 | 1018.6 |
| 20260503194904 | 81 | 94 | 1.0 | 6.0 | 0.00 | 0.00 | 0.00 | 40 | 1018.8 |
| 20260503193906 | 80 | 89 | 3.0 | 8.0 | 0.00 | 0.00 | 0.00 | 39 | 1018.9 |
| 20260503192855 | 79 | 107 | 2.0 | 7.0 | 0.00 | 0.00 | 0.00 | 40 | 1019.2 |
| 20260503191854 | 79 | 78 | 4.0 | 7.0 | 0.00 | 0.00 | 0.00 | 39 | 1019.3 |
| 20260503190850 | 79 | 61 | 4.0 | 10.0 | 0.00 | 0.00 | 0.00 | 41 | 1019.4 |
| 20260503190352 | 78 | 96 | 3.0 | 14.0 | 0.00 | 0.00 | 0.00 | 42 | 1019.5 |
| 20260503185349 | 79 | 35 | 5.0 | 10.0 | 0.00 | 0.00 | 0.00 | 39 | 1019.6 |
| 20260503184344 | 78 | 90 | 2.0 | 8.0 | 0.00 | 0.00 | 0.00 | 41 | 1019.7 |
| 20260503183934 | 78 | 69 | 3.0 | 10.0 | 0.00 | 0.00 | 0.00 | 41 | 1019.8 |
| 20260503183410 | 78 | 66 | 4.0 | 10.0 | 0.00 | 0.00 | 0.00 | 40 | 1020.0 |
| 20260503182357 | 78 | 63 | 2.0 | 7.0 | 0.00 | 0.00 | 0.00 | 41 | 1020.1 |
| 20260503181924 | 78 | 105 | 2.0 | 7.0 | 0.00 | 0.00 | 0.00 | 44 | 1020.2 |
| 20260503181348 | 78 | 109 | 4.0 | 13.0 | 0.00 | 0.00 | 0.00 | 41 | 1020.3 |
| 20260503180926 | 78 | 115 | 2.0 | 8.0 | 0.00 | 0.00 | 0.00 | 44 | 1020.4 |
| 20260503180334 | 78 | 78 | 3.0 | 8.0 | 0.00 | 0.00 | 0.00 | 43 | 1020.6 |
| 20260503175402 | 78 | 91 | 3.0 | 8.0 | 0.00 | 0.00 | 0.00 | 41 | 1020.7 |
| 20260503174922 | 77 | 37 | 3.0 | 9.0 | 0.00 | 0.00 | 0.00 | 42 | 1020.7 |
| 20260503174354 | 77 | 74 | 3.0 | 9.0 | 0.00 | 0.00 | 0.00 | 42 | 1020.8 |
| 20260503173421 | 77 | 76 | 3.0 | 8.0 | 0.00 | 0.00 | 0.00 | 43 | 1021.0 |
| 20260503172926 | 77 | 107 | 4.0 | 8.0 | 0.00 | 0.00 | 0.00 | 43 | 1021.1 |
| 20260503172341 | 77 | 81 | 1.0 | 9.0 | 0.00 | 0.00 | 0.00 | 46 | 1021.1 |
| 20260503171906 | 77 | 48 | 3.0 | 7.0 | 0.00 | 0.00 | 0.00 | 45 | 1021.1 |
| 20260503171435 | 76 | 74 | 3.0 | 6.0 | 0.00 | 0.00 | 0.00 | 45 | 1021.1 |
| 20260503170855 | 76 | 311 | 0.0 | 8.0 | 0.00 | 0.00 | 0.00 | 49 | 1021.2 |
| 20260503170348 | 76 | 115 | 3.0 | 8.0 | 0.00 | 0.00 | 0.00 | 44 | 1021.3 |
| 20260503150931 | 70 | 84 | 2.0 | 5.0 | 0.00 | 0.00 | 0.00 | 55 | 1021.6 |
| 20260503150348 | 70 | 83 | 1.0 | 3.0 | 0.00 | 0.00 | 0.00 | 57 | 1021.6 |
| 20260503130849 | 54 | 134 | 0.0 | 0.0 | 0.00 | 0.00 | 0.00 | 90 | 1021.2 |
| 20260503110350 | 51 | 134 | 0.0 | 0.0 | 0.00 | 0.00 | 0.00 | 90 | 1019.9 |
| 20260503090427 | 52 | 134 | 0.0 | 0.0 | 0.00 | 0.00 | 0.00 | 89 | 1019.4 |
| 20260503081357 | 53 | 133 | 0.0 | 0.0 | 0.00 | 0.00 | 0.00 | 89 | 1019.5 |
| 20260503080425 | 52 | 134 | 0.0 | 0.0 | 0.00 | 0.00 | 0.00 | 89 | 1019.5 |
| 20260503072851 | 53 | 134 | 0.0 | 0.0 | 0.00 | 0.00 | 0.00 | 88 | 1019.6 |
| 20260503071855 | 53 | 134 | 0.0 | 0.0 | 0.00 | 0.00 | 0.00 | 88 | 1019.5 |
| 20260503070857 | 53 | 134 | 0.0 | 0.0 | 0.00 | 0.00 | 0.00 | 87 | 1019.6 |
| 20260503060341 | 55 | 133 | 0.0 | 0.0 | 0.00 | 0.00 | 0.00 | 83 | 1019.6 |
| 20260503054837 | 55 | 134 | 0.0 | 0.0 | 0.00 | 0.00 | 0.00 | 83 | 1019.6 |
| 20260503054335 | 55 | 134 | 0.0 | 0.0 | 0.00 | 0.00 | 0.00 | 83 | 1019.6 |
| 20260503053855 | 55 | 134 | 0.0 | 0.0 | 0.00 | 0.00 | 0.00 | 82 | 1019.6 |
| 20260503053348 | 56 | 134 | 0.0 | 0.0 | 0.00 | 0.00 | 0.00 | 82 | 1019.6 |
| 20260503052851 | 56 | 134 | 0.0 | 0.0 | 0.00 | 0.00 | 0.00 | 82 | 1019.5 |
| 20260503052336 | 56 | 134 | 0.0 | 0.0 | 0.00 | 0.00 | 0.00 | 81 | 1019.5 |
| 20260503051904 | 56 | 134 | 0.0 | 0.0 | 0.00 | 0.00 | 0.00 | 81 | 1019.6 |
| 20260503051353 | 56 | 134 | 0.0 | 0.0 | 0.00 | 0.00 | 0.00 | 81 | 1019.5 |
| 20260503050837 | 56 | 134 | 0.0 | 0.0 | 0.00 | 0.00 | 0.00 | 81 | 1019.5 |
| 20260503050359 | 56 | 134 | 0.0 | 0.0 | 0.00 | 0.00 | 0.00 | 80 | 1019.6 |
| 20260503045849 | 56 | 134 | 0.0 | 0.0 | 0.00 | 0.00 | 0.00 | 80 | 1019.5 |
| 20260503045411 | 56 | 134 | 0.0 | 0.0 | 0.00 | 0.00 | 0.00 | 80 | 1019.5 |
| 20260503044353 | 56 | 134 | 0.0 | 0.0 | 0.00 | 0.00 | 0.00 | 79 | 1019.5 |
| 20260503043918 | 57 | 133 | 0.0 | 0.0 | 0.00 | 0.00 | 0.00 | 79 | 1019.5 |
| 20260503043354 | 57 | 134 | 0.0 | 0.0 | 0.00 | 0.00 | 0.00 | 79 | 1019.5 |
| 20260503042400 | 57 | 134 | 0.0 | 0.0 | 0.00 | 0.00 | 0.00 | 79 | 1019.6 |
| 20260503041408 | 57 | 134 | 0.0 | 0.0 | 0.00 | 0.00 | 0.00 | 77 | 1019.6 |
| 20260503040940 | 57 | 134 | 0.0 | 0.0 | 0.00 | 0.00 | 0.00 | 77 | 1019.6 |
| 20260503040433 | 57 | 134 | 0.0 | 0.0 | 0.00 | 0.00 | 0.00 | 75 | 1019.6 |
| 20260503035838 | 57 | 134 | 0.0 | 0.0 | 0.00 | 0.00 | 0.00 | 74 | 1019.7 |
| 20260503035402 | 57 | 134 | 0.0 | 0.0 | 0.00 | 0.00 | 0.00 | 73 | 1019.7 |
| 20260503034935 | 58 | 134 | 0.0 | 0.0 | 0.00 | 0.00 | 0.00 | 73 | 1019.7 |
| 20260503034356 | 58 | 134 | 0.0 | 0.0 | 0.00 | 0.00 | 0.00 | 73 | 1019.5 |
| 20260503033347 | 58 | 134 | 0.0 | 0.0 | 0.00 | 0.00 | 0.00 | 73 | 1019.5 |
| 20260503032929 | 58 | 134 | 0.0 | 0.0 | 0.00 | 0.00 | 0.00 | 72 | 1019.4 |
| 20260503032338 | 58 | 134 | 0.0 | 0.0 | 0.00 | 0.00 | 0.00 | 71 | 1019.5 |
| 20260503031930 | 59 | 134 | 0.0 | 0.0 | 0.00 | 0.00 | 0.00 | 71 | 1019.4 |
| 20260503031338 | 59 | 134 | 0.0 | 0.0 | 0.00 | 0.00 | 0.00 | 71 | 1019.4 |
| 20260503030405 | 59 | 134 | 0.0 | 0.0 | 0.00 | 0.00 | 0.00 | 68 | 1019.4 |
| 20260503025342 | 60 | 134 | 0.0 | 0.0 | 0.00 | 0.00 | 0.00 | 68 | 1019.3 |
| 20260503024923 | 60 | 133 | 0.0 | 0.0 | 0.00 | 0.00 | 0.00 | 66 | 1019.3 |
| 20260503023935 | 61 | 134 | 0.0 | 0.0 | 0.00 | 0.00 | 0.00 | 64 | 1019.2 |
| 20260503022909 | 61 | 133 | 0.0 | 0.0 | 0.00 | 0.00 | 0.00 | 64 | 1019.1 |
| 20260503022336 | 61 | 134 | 0.0 | 0.0 | 0.00 | 0.00 | 0.00 | 64 | 1019.1 |
| 20260503021920 | 62 | 133 | 0.0 | 0.0 | 0.00 | 0.00 | 0.00 | 63 | 1019.0 |
| 20260503020905 | 62 | 134 | 0.0 | 0.0 | 0.00 | 0.00 | 0.00 | 62 | 1018.9 |
| 20260503015858 | 63 | 134 | 0.0 | 0.0 | 0.00 | 0.00 | 0.00 | 60 | 1018.8 |
| 20260503015433 | 64 | 134 | 0.0 | 0.0 | 0.00 | 0.00 | 0.00 | 59 | 1018.7 |
| 20260503014908 | 64 | 133 | 0.0 | 0.0 | 0.00 | 0.00 | 0.00 | 56 | 1018.7 |
| 20260503013907 | 65 | 133 | 0.0 | 1.0 | 0.00 | 0.00 | 0.00 | 55 | 1018.7 |
| 20260503012857 | 66 | 134 | 0.0 | 0.0 | 0.00 | 0.00 | 0.00 | 54 | 1018.5 |
| 20260503012438 | 67 | 133 | 0.0 | 0.0 | 0.00 | 0.00 | 0.00 | 52 | 1018.5 |
| 20260503011836 | 68 | 134 | 0.0 | 0.0 | 0.00 | 0.00 | 0.00 | 51 | 1018.5 |
| 20260503011358 | 68 | 134 | 0.0 | 0.0 | 0.00 | 0.00 | 0.00 | 47 | 1018.4 |
| 20260503010431 | 70 | 134 | 0.0 | 0.0 | 0.00 | 0.00 | 0.00 | 46 | 1018.3 |
| 20260503005905 | 71 | 134 | 0.0 | 0.0 | 0.00 | 0.00 | 0.00 | 44 | 1018.3 |
| 20260503004901 | 72 | 134 | 0.0 | 1.0 | 0.00 | 0.00 | 0.00 | 42 | 1018.2 |
| 20260503004431 | 73 | 134 | 0.0 | 1.0 | 0.00 | 0.00 | 0.00 | 41 | 1018.2 |
| 20260503003844 | 73 | 134 | 0.0 | 2.0 | 0.00 | 0.00 | 0.00 | 40 | 1018.1 |
| 20260503002851 | 74 | 138 | 0.0 | 3.0 | 0.00 | 0.00 | 0.00 | 39 | 1018.1 |
| 20260503001855 | 74 | 140 | 0.0 | 2.0 | 0.00 | 0.00 | 0.00 | 39 | 1018.1 |
| 20260503001416 | 74 | 124 | 1.0 | 3.0 | 0.00 | 0.00 | 0.00 | 39 | 1018.0 |
| 20260503000423 | 74 | 136 | 0.0 | 2.0 | 0.00 | 0.00 | 0.00 | 41 | 1018.0 |
| 20260502235931 | 74 | 97 | 0.0 | 2.0 | 0.00 | 0.00 | 0.00 | 40 | 1018.0 |
| 20260502235352 | 74 | 196 | 0.0 | 3.0 | 0.00 | 0.00 | 0.00 | 39 | 1018.0 |
| 20260502234352 | 73 | 140 | 1.0 | 4.0 | 0.00 | 0.00 | 0.00 | 38 | 1018.0 |
| 20260502233415 | 74 | 240 | 1.0 | 3.0 | 0.00 | 0.00 | 0.00 | 39 | 1018.0 |
| 20260502232347 | 74 | 144 | 1.0 | 6.0 | 0.00 | 0.00 | 0.00 | 37 | 1017.9 |
| 20260502231413 | 74 | 198 | 0.0 | 6.0 | 0.00 | 0.00 | 0.00 | 39 | 1017.9 |
| 20260502230403 | 75 | 134 | 2.0 | 7.0 | 0.00 | 0.00 | 0.00 | 36 | 1017.9 |
| 20260502225407 | 76 | 133 | 1.0 | 4.0 | 0.00 | 0.00 | 0.00 | 35 | 1017.9 |
| 20260502224346 | 76 | 240 | 1.0 | 7.0 | 0.00 | 0.00 | 0.00 | 34 | 1018.0 |
| 20260502223927 | 76 | 160 | 1.0 | 7.0 | 0.00 | 0.00 | 0.00 | 36 | 1018.0 |
| 20260502222916 | 76 | 169 | 1.0 | 3.0 | 0.00 | 0.00 | 0.00 | 37 | 1018.1 |
| 20260502221902 | 75 | 140 | 1.0 | 4.0 | 0.00 | 0.00 | 0.00 | 35 | 1018.0 |
| 20260502221434 | 75 | 205 | 1.0 | 3.0 | 0.00 | 0.00 | 0.00 | 35 | 1018.0 |